EHI
0 0 0 0 0 0 0 0 0 0 0 0 0 0 0 0 0 0 0 0 0 0 0 0 0 0 0 0 0 0 0 0 0 0 0 0 0 0 0 0 0 0 0 0
0 0 0 0 0 0 0 0 0 0 0 0 0 0 0 0 0 0 0 0 0 0 0 0 0 0 0 0 0 0 0 0 0 0 0 0 0 0 0 0 0 0 0 0
0 0 0 0 0 0 0 0 0 0 0 0 0 0 0 0 0 0 0 0 0 0 0 0 0 0 0 0 0 0 0 0 0 0 0 0 0 0 0 0 0 0 0 0
0 0 0 0 0 0 0 0 0 0 0 0 0 0 0 0 0 0 0 0 0 0 0 0 0 0 0 0 0 0 0 0 0 0 0 0 0 0 0 0 0 0 0 0
0 0 0 0 0 0 0 0 0 0 0 0 0 0 0 0 0 0 0 0 0 0 0 0 0 0 0 0 0 0 0 0 0 0 0 0 0 0 0 0 0 0 0 0
0 0 0 0 0 0 0 0 0 0 0 0 0 0 0 0 0 0 0 0 0 0 0 0 0 0 0 0 0 0 0 0 0 0 0 0 0 0 0 0 0 0 0 0
0 0 0 0 0 0 0 0 0 0 0 0 0 0 0 0 0 0 0 0 0 0 0 0 0 0 0 0 0 0 0 0 0 0 0 0 0 0 0 0 0 0 0 0
0 0 0 0 0 0 0 0 0 0 0 0 0 0 0 0 0 0 0 0 0 0 0 0 0 0 0 0 0 0 0 0 0 0 0 0 0 0 0 0 0 0 0 0
0 0 0 0 0 0 0 0 0 0 0 0 0 0 0 0 0 0 0 0 0 0 0 0 0 0 0 0 0 0 0 0 0 0 0 0 0 0 0 0 0 0 0 0
0 0 0 0 0 0 0 0 0 0 0 0 0 0 0 0 0 0 0 0 0 0 0 0 0 0 0 0 0 0 0 0 0 0 0 0 0 0 0 0 0 0 0 0
0 0 0 0 0 0 0 0 0 0 0 0 0 0 0 0 0 0 0 0 0 0 0 0 0 0 0 0 0 0 0 0 0 0 0 0 0 0 0 0 0 0 0 0
0 0 0 0 0 0 0 0 0 0 0 0 0 0 0 0 0 0 0 0 0 0 0 0 0 0 0 0 0 0 0 0 0 0 0 0 0 0 0 0 0 0 0 0
0 0 0 0 0 0 0 0 0 0 0 0 0 0 0 0 0 0 0 0 0 0 0 0 0 0 0 0 0 0 0 0 0 0 0 0 0 0 0 0 0 0 0 0
0 0 0 0 0 0 0 0 0 0 0 0 0 0 0 0 0 0 0 0 0 0 0 0 0 0 0 0 0 0 0 0 0 0 0 0 0 0 0 0 0 0 0 0
0 0 0 0 0 0 0 0 0 0 0 0 0 0 0 0 0 0 0 0 0 0 0 0 0 0 0 0 0 0 0 0 0 0 0 0 0 0 0 0 0 0 0 0
0 0 0 0 0 0 0 0 0 0 0 0 0 0 0 0 0 0 0 0 0 0 0 0 0 0 0 0 0 0 0 0 0 0 0 0 0 0 0 0 0 0 0 0
0 0 0 0 0 0 0 0 0 0 0 0 0 0 0 0 0 0 0 0 0 0 0 0 0 0 0 0 0 0 0 0 0 0 0 0 0 0 0 0 0 0 0 0
0 0 0 0 0 0 0 0 0 0 0 0 0 0 0 0 0 0 0 0 0 0 0 0 0 0 0 0 0 0 0 0 0 0 0 0 0 0 0 0 0 0 0 0
0 0 0 0 0 0 0 0 0 0 0 0 0 0 0 0 0 0 0 0 0 0 0 0 0 0 0 0 0 0 0 0 0 0 0 0 0 0 0 0 0 0 0 0
0 0 0 0 0 0 0 0 0 0 0 0 0 0 0 0 0 0 0 0 0 0 0 0 0 0 0 0 0 0 0 0 0 0 0 0 0 0 0 0 0 0 0 0
0 0 0 0 0 0 0 0 0 0 0 0 0 0 0 0 0 0 0 0 0 0 0 0 0 0 0 0 0 0 0 0 0 0 0 0 0 0 0 0 0 0 0 0
0 0 0 0 0 0 0 0 0 0 0 0 0 0 0 0 0 0 0 0 0 0 0 0 0 0 0 0 0 0 0 0 0 0 0 0 0 0 0 0 0 0 0 0
0 0 0 0 0 0 0 0 0 0 0 0 0 0 0 0 0 0 0 0 0 0 0 0 0 0 0 0 0 0 0 0 0 0 0 0 0 0 0 0 0 0 0 0
0 0 0 0 0 0 0 0 0 0 0 0 0 0 0 0 0 0 0 0 0 0 0 0 0 0 0 0 0 0 0 0 0 0 0 0 0 0 0 0 0 0 0 0
0 0 0 0 0 0 0 0 0 0 0 0 0 0 0 0 0 0 0 0 0 0 0 0 0 0 0 0 0 0 0 0 0 0 0 0 0 0 0 0 0 0 0 0
0 0 0 0 0 0 0 0 0 0 0 0 0 0 0 0 0 0 0 0 0 0 0 0 0 0 0 0 0 0 0 0 0 0 0 0 0 0 0 0 0 0 0 0
0 0 0 0 0 0 0 0 0 0 0 0 0 0 0 0 0 0 0 0 0 0 0 0 0 0 0 0 0 0 0 0 0 0 0 0 0 0 0 0 0 0 0 0
Wind_Speed
4 3 2 4 5 7 9 8 7 6 5 5 2 1 1 2 2 3 2 2 2 2 1 1 1 1 1 1 1 1 1 1 2 2 2 2 3 3 4 4 5 5 5 5
4 3 3 6 7 8 9 8 9 7 8 3 0 2 2 1 2 2 1 2 2 1 1 1 1 1 1 1 0 0 1 1 2 2 2 3 3 4 4 4 4 5 5 5
3 1 2 8 8 9 6 5 6 9 7 1 1 1 0 0 1 1 2 2 1 1 1 1 0 1 1 0 0 0 1 2 2 2 3 3 4 4 4 4 5 5 5 6
2 1 7 6 0 3 5 4 4 3 1 2 1 1 2 2 2 2 2 2 1 1 1 1 1 1 1 1 1 0 1 2 2 2 3 4 4 4 5 4 5 5 6 6
2 4 7 3 2 2 3 4 3 5 3 1 2 2 2 3 4 3 2 2 2 2 2 2 2 2 1 1 1 1 2 2 3 3 4 4 5 5 5 5 5 5 6 6
3 4 7 3 0 0 3 3 1 3 3 2 2 0 1 2 4 3 3 3 3 2 2 2 1 1 1 1 1 2 3 3 3 3 4 5 5 5 5 5 6 6 7 6
5 5 6 1 1 2 3 3 1 3 3 3 2 2 2 3 3 3 3 3 3 3 2 1 1 2 1 1 2 3 3 3 4 4 5 5 5 5 5 5 5 6 7 7
4 5 7 2 3 3 3 1 2 3 3 3 3 3 3 3 3 3 3 3 3 2 2 2 2 2 1 2 3 3 3 4 4 4 5 5 5 5 5 5 5 6 6 7
5 5 0 2 2 1 2 2 2 2 3 4 3 2 2 2 2 2 2 2 2 2 2 2 2 2 2 3 3 4 4 4 4 5 5 5 5 5 5 4 4 5 5 6
2 3 1 1 1 2 2 2 2 3 2 3 3 3 2 2 2 1 2 2 2 2 2 2 2 3 2 3 3 4 4 5 5 5 5 4 4 4 4 4 4 5 5 6
3 2 1 1 1 1 2 3 3 3 3 3 3 3 2 2 1 1 2 2 2 1 1 2 2 3 3 3 3 4 5 5 5 5 5 4 4 4 5 4 6 7 5 5
4 2 2 1 1 2 3 3 3 3 3 3 3 2 2 1 1 1 1 1 2 1 2 2 3 3 4 4 3 4 5 5 4 4 4 4 4 5 9 9 13 14 13 11
1 1 0 1 1 2 2 2 3 3 2 2 2 2 2 1 1 1 1 1 1 2 2 2 3 3 4 4 4 4 5 5 4 4 5 5 5 5 6 8 11 13 14 15
2 2 1 1 1 2 3 3 4 3 3 3 2 2 2 1 1 1 1 1 1 2 2 3 3 4 4 4 4 4 5 6 6 4 4 5 5 6 6 6 7 6 9 14
3 2 1 1 3 3 3 3 3 3 2 2 2 2 1 1 1 1 2 2 2 2 2 3 3 4 4 4 4 5 5 4 4 4 5 5 6 5 5 6 6 7 6 8
2 3 3 3 2 2 2 2 2 1 1 1 1 1 1 0 1 1 2 1 1 3 3 3 4 4 4 4 5 4 4 8 8 5 5 5 5 5 5 5 6 6 6 7
2 2 2 2 1 1 1 1 1 1 1 1 1 1 1 1 1 2 2 2 2 3 4 4 4 5 4 4 4 4 4 6 10 7 5 5 5 5 5 5 6 6 6 8
1 1 1 2 2 1 1 2 2 1 1 0 1 1 1 1 2 3 3 3 3 4 4 3 4 4 4 4 4 4 4 4 5 5 5 5 6 5 5 5 6 7 6 8
4 3 3 3 2 2 1 1 1 1 1 1 1 1 1 2 2 2 3 3 3 4 4 4 7 5 5 6 6 3 4 5 5 5 5 8 7 5 5 5 6 6 7 6
5 4 4 4 3 2 2 1 1 1 1 1 1 1 2 2 2 3 3 3 3 3 4 5 5 4 5 5 7 3 4 5 5 5 5 5 5 5 5 6 6 6 6 6
4 3 3 3 3 2 1 1 1 1 2 1 1 2 2 3 3 3 3 4 3 3 5 7 4 4 5 6 6 3 4 5 5 5 5 5 5 5 5 6 6 6 6 6
2 2 2 2 2 2 2 2 2 1 2 2 2 2 2 3 3 3 4 4 4 7 5 3 4 7 8 8 3 3 4 5 5 4 4 5 5 5 6 6 6 6 6 6
2 2 2 2 2 2 2 2 2 2 2 2 2 3 3 3 3 3 4 3 3 8 5 4 8 11 12 5 3 4 5 5 5 4 4 5 5 5 5 6 6 6 6 6
2 2 2 2 2 2 2 3 3 2 2 3 2 3 3 3 3 3 3 7 9 9 5 7 12 12 10 3 3 4 4 4 5 5 5 5 5 5 5 6 6 6 6 7
2 1 1 2 2 2 2 2 2 2 3 3 3 3 2 2 3 4 4 4 8 8 5 7 11 11 6 4 4 4 4 5 5 5 4 5 5 5 5 6 6 6 6 7
1 1 1 1 1 1 1 2 2 2 2 3 3 3 3 3 3 3 3 4 6 8 5 4 5 6 4 4 4 5 5 6 6 5 5 5 6 6 6 6 8 7 7 7
1 1 1 1 1 2 2 2 2 3 3 3 4 4 3 3 3 3 4 4 4 4 4 4 4 4 4 4 5 5 5 5 5 5 5 5 5 6 6 7 7 7 7 7
Wind_Direction
263 279 235 233 220 201 207 214 222 239 239 259 241 218 151 116 109 112 119 124 129 131 135 140 143 151 150 156 168 186 216 246 261 275 280 282 283 284 286 286 288 285 287 289
268 242 252 263 246 222 225 232 240 255 269 264 324 68 61 85 118 126 124 113 104 93 83 104 134 141 130 148 194 177 233 269 278 284 284 282 284 287 289 288 288 289 287 286
254 213 293 260 235 213 211 214 208 231 236 165 82 40 10 39 112 126 110 91 87 89 80 78 129 138 142 136 32 36 291 290 288 288 289 290 295 295 290 288 286 284 284 283
254 315 244 244 260 179 189 228 207 203 185 133 143 72 44 56 88 91 88 88 77 76 57 39 49 65 80 56 22 316 296 295 294 295 298 300 294 289 286 285 283 280 282 280
217 242 266 255 221 174 186 258 219 202 205 166 118 55 25 47 67 79 79 79 80 82 76 57 46 54 70 36 358 329 308 301 303 303 300 298 294 292 292 293 290 286 284 283
217 232 245 245 140 22 126 270 285 154 173 170 142 177 230 73 67 63 67 72 72 74 75 67 43 54 55 4 351 323 312 312 313 308 300 295 291 292 293 291 289 292 292 287
225 237 260 246 199 116 164 234 102 113 132 136 143 162 127 74 65 66 69 67 64 67 60 40 38 58 36 356 323 310 315 316 312 304 297 291 288 290 291 291 291 289 289 289
199 221 249 142 129 176 192 95 100 95 106 111 111 107 97 84 70 60 62 61 60 65 51 26 26 42 15 333 317 318 317 311 305 301 298 301 292 290 289 287 288 287 289 291
197 213 204 135 136 106 83 85 76 86 94 119 125 121 105 90 76 61 58 46 49 70 54 26 17 31 355 321 324 324 317 310 304 304 300 301 296 295 294 288 286 290 291 294
244 244 207 156 89 60 67 93 84 93 102 112 124 121 109 100 84 64 51 39 40 51 41 10 1 359 334 324 327 324 315 310 306 304 301 299 296 293 292 288 288 290 291 294
253 269 339 351 31 64 74 80 81 82 93 107 117 117 114 105 90 73 48 33 30 31 12 346 346 340 336 333 329 319 311 307 306 303 299 297 295 287 290 275 282 291 286 286
232 214 192 213 75 83 90 84 87 93 78 79 106 116 104 93 84 80 56 33 21 8 353 334 331 326 326 327 325 315 310 310 307 305 303 301 299 299 298 297 301 301 301 298
236 11 94 143 77 74 90 87 82 85 93 81 74 90 95 87 58 58 40 18 349 328 320 316 317 315 316 320 319 310 301 304 304 308 308 304 303 302 303 304 301 303 304 306
65 71 55 52 63 66 83 84 82 76 72 80 80 80 87 74 36 20 338 311 309 315 312 310 310 309 312 315 312 306 301 303 306 299 301 300 297 296 297 301 305 303 304 306
8 21 134 94 78 70 76 89 90 82 77 70 75 81 83 73 353 318 314 321 325 316 311 310 305 303 310 313 309 304 302 299 298 297 297 297 296 295 296 298 300 303 306 307
34 76 94 98 93 84 79 83 96 88 76 72 63 53 55 61 317 310 319 329 318 302 299 297 295 300 308 310 308 302 297 303 307 300 296 300 299 298 299 300 300 300 301 305
104 113 117 121 116 83 65 74 109 113 84 64 28 21 24 358 338 329 325 318 297 288 287 287 295 305 304 302 300 299 298 300 306 306 299 298 296 296 297 298 299 299 297 302
79 91 106 134 136 109 66 57 60 60 63 12 5 11 347 323 304 303 306 311 311 301 291 296 300 305 303 302 301 295 297 296 297 298 301 300 299 297 298 299 300 300 301 303
62 67 65 62 66 83 73 53 37 26 4 2 4 329 302 288 285 292 302 306 299 297 305 308 311 314 302 298 308 295 298 300 302 302 301 304 308 304 301 300 300 301 302 303
56 58 61 57 50 57 49 26 24 13 359 4 356 324 312 304 300 294 292 281 268 273 297 306 309 302 300 297 307 297 296 298 298 299 300 298 299 300 300 301 302 302 304 304
55 56 57 54 46 39 37 19 9 340 330 329 308 295 294 300 297 289 289 292 294 298 305 311 314 300 300 306 310 300 296 297 296 296 298 300 300 301 302 303 304 305 304 304
52 56 53 50 44 29 17 12 8 346 327 321 317 314 311 309 308 297 274 268 291 309 314 300 296 302 312 316 307 301 298 298 298 298 297 297 299 301 303 304 303 302 301 301
51 51 49 43 38 21 8 8 2 354 340 328 319 314 306 299 294 296 301 300 302 309 315 295 303 311 318 322 307 301 300 300 300 300 299 299 300 301 301 300 299 299 300 301
55 47 41 34 35 29 9 355 348 341 326 313 304 296 295 302 301 283 280 306 313 313 309 306 314 318 323 320 306 302 300 300 298 298 298 298 297 297 296 296 297 298 299 300
55 51 45 31 17 359 348 345 342 335 331 323 317 312 298 281 283 296 299 299 309 317 313 311 316 322 326 313 307 302 299 295 297 299 296 298 297 298 298 297 298 299 299 299
40 23 10 352 337 333 334 334 330 326 327 323 319 316 312 307 300 299 303 305 307 316 318 311 313 316 316 310 307 305 302 303 307 306 301 299 298 297 298 299 299 298 297 296
34 20 13 3 353 346 336 328 320 318 319 312 310 312 313 314 313 313 313 311 311 311 310 311 312 310 309 308 306 305 304 304 303 301 301 299 298 297 297 297 297 297 297 296